Flag for Japan Weather past 2 weeks in Suzuka, Japan

Now
66 °F

Mild.


Feels Like: 66 °F
Forecast: 61 / 70 °F
Wind: 3 mph from Southwest

Location: Tsu

Current Time: Oct 22, 2014 at 7:10:57 AM

Latest Report: Oct 22, 2014 at 6:00 AM


Visibility: N/A

Pressure: 29.83 "Hg

Humidity: 95%

Dew point: 64 °F

Location of SuzukaLocation

Historic Weather in Suzuka — Graph

°F

Suzuka temperature yesterday

Maximum temperature yesterday: 69 °F (at 2:00 PM)
Minimum temperature yesterday: 62 °F (at 1:00 AM)
Average temperature yesterday: 66 °F

Past Weeks' High & Low Weather Summary

 TemperatureHumidityPressure
High77 °F (Oct 7, 2:00 PM)97% (Oct 21, 1:00 AM)30.37 "Hg (Oct 21, 1:00 AM)
Low51 °F (Oct 19, 6:00 AM)29% (Oct 7, 2:00 PM)29.09 "Hg (Oct 13, 10:00 PM)
Average66 °F71%30.07 "Hg
* Reported Oct 7 5:00 AM — Oct 22 5:00 AM, Suzuka, Weather by CustomWeather, © 2014

Note: Actual official high and low records may vary slightly from our data, if they occured in-between our weather recording intervals... More about our weather records

Advertising

Suzuka weather history for previous 24 hours

 ConditionsComfort  
Time TempWeatherWind HumidityBarometerVisibility
5:00 AM
Oct 22
66 °FMild.3 mph95%29.83 "HgN/A
4:00 AM66 °FMild.2 mph95%29.84 "HgN/A
3:00 AM66 °FMild.2 mph94%29.85 "HgN/A
2:00 AM66 °FMild.2 mph93%29.86 "HgN/A
1:00 AM66 °FMild.3 mph94%29.88 "HgN/A
12:00 AM67 °FMild.3 mph93%29.90 "HgN/A
11:00 PM
Oct 21
67 °FMild.2 mph92%29.93 "HgN/A
10:00 PM68 °FMild.3 mph91%29.96 "HgN/A
9:00 PM68 °FSprinkles. Overcast.3 mph89%29.97 "Hg5 mi
8:00 PM68 °FMild.2 mph89%29.96 "HgN/A
7:00 PM68 °FMild.1 mph87%29.97 "HgN/A
6:00 PM68 °FMild.1 mph87%29.98 "HgN/A
5:00 PM69 °FMild.3 mph84%29.98 "HgN/A
4:00 PM69 °FMild.5 mph85%29.98 "HgN/A
3:00 PM68 °FOvercast.6 mph86%29.99 "Hg6 mi
2:00 PM69 °FMild.8 mph85%30.01 "HgN/A
1:00 PM69 °FMild.3 mph84%30.03 "HgN/A
12:00 PM67 °FMild.5 mph88%30.05 "HgN/A
11:00 AM67 °FMild.2 mph90%30.08 "HgN/A
10:00 AM65 °FMild.1 mph93%30.11 "HgN/A
9:00 AM65 °FOvercast.1 mph94%30.11 "Hg1 mi
8:00 AM64 °FMild.3 mph97%30.11 "HgN/A
7:00 AM63 °FMild.2 mph97%30.10 "HgN/A
Weather by CustomWeather, © 2014

See weather overviewHow to use our weather pages